Weather History for Denver Centennial, CO

Change the Weather History Date:

Saturday, September 8, 2012

  Actual Average Record
Temperature  
Mean Temperature 62 °F -  
Max Temperature 78 °F 77 °F 92 °F (2013)
Min Temperature 45 °F 49 °F 35 °F (2001)
Degree Days  
Heating Degree Days 3    
Month to date heating degree days 6  
Growing Degree Days 12 (Base 50)    
Moisture  
Dew Point 35 °F    
Average Humidity 47    
Maximum Humidity 82    
Minimum Humidity 11    
Precipitation  
Precipitation 0.00 in - - ()
Month to date precipitation T  
Year to date precipitation 10.38  
Sea Level Pressure  
Sea Level Pressure 30.25 in    
Wind  
Wind Speed 4 mph (SSE)    
Max Wind Speed 13 mph    
Max Gust Speed 17 mph    
Visibility 10 miles    
Events      
Averages and records for this station are not official NWS values.
T = Trace of Precipitation, MM = Missing Value Source: NWS Daily Summary

Daily Weather History Graph

Daily Weather History Graph

Search for Another Location

Airport:

Trip Planner

Search our weather history database for the weather conditions in past years. The results will help you decide how hot, cold, wet, or windy it might be!

Date:

Astronomy

Sep. 08, 2012 Rise Set
Actual Time 6:34 AM MDT 7:18 PM MDT
Civil Twilight 6:07 AM MDT 7:45 PM MDT
Nautical Twilight 5:35 AM MDT 8:17 PM MDT
Astronomical Twilight 5:01 AM MDT 8:50 PM MDT
Moon No Moon Rise 2:16 PM MDT (9/8)
Length of Visible Light 13h 38m
Length of Day
12h 43m
Waning Gibbous, 48% of the Moon is Illuminated
Sep 8
Waning Gibbous
Sep 15
New
Sep 22
First Quarter
Sep 29
Full
Oct 8
Last Quarter

Hourly Weather History & Observations

Time (MDT) Temp. Dew Point Humidity Pressure Visibility Wind Dir Wind Speed Gust Speed Precip Events Conditions
12:53 AM 55.0 °F 42.1 °F 62% 30.29 in 10.0 mi SSE 4.6 mph - N/A   Partly Cloudy
1:53 AM 52.0 °F 41.0 °F 66% 30.28 in 10.0 mi Calm Calm - N/A   Partly Cloudy
2:53 AM 51.1 °F 42.1 °F 71% 30.28 in 10.0 mi South 6.9 mph - N/A   Clear
3:53 AM 48.9 °F 42.1 °F 77% 30.28 in 10.0 mi South 4.6 mph - N/A   Clear
4:53 AM 48.9 °F 41.0 °F 74% 30.30 in 10.0 mi South 4.6 mph - N/A   Clear
5:53 AM 46.9 °F 41.0 °F 80% 30.32 in 10.0 mi South 3.5 mph - N/A   Clear
6:53 AM 48.9 °F 41.0 °F 74% 30.33 in 10.0 mi South 4.6 mph - N/A   Clear
7:53 AM 54.0 °F 42.1 °F 64% 30.33 in 10.0 mi SSW 3.5 mph - N/A   Clear
8:53 AM 59.0 °F 43.0 °F 55% 30.31 in 10.0 mi Calm Calm - N/A   Clear
9:53 AM 62.1 °F 43.0 °F 50% 30.30 in 10.0 mi Calm Calm - N/A   Clear
10:53 AM 66.9 °F 42.1 °F 40% 30.27 in 10.0 mi ENE 4.6 mph - N/A   Clear
11:53 AM 70.0 °F 41.0 °F 35% 30.25 in 10.0 mi North 6.9 mph - N/A   Partly Cloudy
12:53 PM 71.1 °F 35.1 °F 27% 30.22 in 10.0 mi North 4.6 mph - N/A   Partly Cloudy
2:53 PM 75.9 °F 32.0 °F 20% 30.17 in 10.0 mi Variable 3.5 mph - N/A   Partly Cloudy
3:53 PM 77.0 °F 24.1 °F 14% 30.16 in 10.0 mi ENE 5.8 mph - N/A   Partly Cloudy
4:53 PM 77.0 °F 19.0 °F 11% 30.15 in 10.0 mi Calm Calm - N/A   Partly Cloudy
5:53 PM 75.9 °F 23.0 °F 14% 30.17 in 10.0 mi North 6.9 mph - N/A   Partly Cloudy
6:53 PM 73.0 °F 24.1 °F 16% 30.18 in 10.0 mi NNE 10.4 mph - N/A   Partly Cloudy
7:53 PM 69.1 °F 24.1 °F 18% 30.19 in 10.0 mi NNE 4.6 mph - N/A   Clear
8:53 PM 64.0 °F 26.1 °F 24% 30.22 in 10.0 mi Calm Calm - N/A   Clear
9:53 PM 60.1 °F 32.0 °F 35% 30.24 in 10.0 mi South 3.5 mph - N/A   Clear
10:53 PM 57.0 °F 32.0 °F 39% 30.23 in 10.0 mi South 5.8 mph - N/A   Clear
11:53 PM 57.9 °F 30.9 °F 36% 30.21 in 10.0 mi South 5.8 mph - N/A   Clear